FW8243 Weather Reports


time (UTC)temp
F
wind
direction
speed
knots
gust
knots
rain 1hr
in
rain 24hr
in
rain mn
in
humidity
%
barometer
mb
20260504190107 55 319 13.9 21.7 0.00 0.00 0.00 47 1011.1
20260504185548 56 303 14.8 21.7 0.00 0.00 0.00 46 1011.1
20260504185047 56 346 14.8 26.1 0.00 0.00 0.00 46 1011.0
20260504184555 55 298 15.6 26.1 0.00 0.00 0.00 47 1011.0
20260504184049 55 317 16.5 23.5 0.00 0.00 0.00 47 1011.1
20260504183551 56 315 14.8 20.9 0.00 0.00 0.00 46 1011.0
20260504183053 56 303 15.6 20.9 0.00 0.00 0.00 46 1011.0
20260504182546 55 327 13.0 23.5 0.00 0.00 0.00 47 1011.0
20260504182047 55 281 12.2 23.5 0.00 0.00 0.00 47 1011.1
20260504181603 55 290 14.8 26.1 0.00 0.00 0.00 47 1011.1
20260504181047 55 298 13.0 26.1 0.00 0.00 0.00 47 1011.0
20260504180547 55 302 13.9 26.1 0.00 0.00 0.00 47 1011.1
20260504180055 55 288 15.6 24.3 0.00 0.00 0.00 47 1011.2
20260504175548 55 296 12.2 20.9 0.00 0.00 0.00 47 1011.3
20260504175048 55 311 13.9 22.6 0.00 0.00 0.00 48 1011.2
20260504174554 55 283 14.8 22.6 0.00 0.00 0.00 49 1011.2
20260504174047 55 326 15.6 22.6 0.00 0.00 0.00 47 1011.2
20260504173548 55 323 15.6 24.3 0.00 0.00 0.00 47 1011.3
20260504173058 55 325 15.6 24.3 0.00 0.00 0.00 48 1011.3
20260504172547 55 308 13.9 24.3 0.00 0.00 0.00 50 1011.1
20260504172048 56 355 13.9 24.3 0.00 0.00 0.00 49 1011.1
20260504171558 56 336 16.5 24.3 0.00 0.00 0.00 48 1011.1
20260504171047 56 327 14.8 22.6 0.00 0.00 0.00 48 1011.1
20260504170547 56 355 12.2 20.9 0.00 0.00 0.00 48 1010.9
20260504170110 56 324 14.8 25.2 0.00 0.00 0.00 47 1010.9
20260504151049 55 322 14.8 22.6 0.00 0.00 0.00 53 1009.9
20260504150545 54 327 16.5 22.6 0.00 0.00 0.00 54 1009.9
20260504141048 51 325 8.7 12.2 0.00 0.00 0.00 62 1010.0
20260504140548 51 310 7.8 13.0 0.00 0.00 0.00 64 1009.8
20260504130548 47 338 7.0 9.6 0.00 0.00 0.00 69 1009.0
20260504110548 48 325 4.3 7.8 0.00 0.00 0.00 70 1006.0
20260504100545 45 0 0.0 0.9 0.00 0.00 0.00 82 1004.9
20260504081549 48 202 3.5 5.2 0.00 0.00 0.00 82 1004.5
20260504081047 48 214 1.7 5.2 0.00 0.00 0.00 82 1004.5
20260504080547 48 201 1.7 5.2 0.00 0.00 0.00 81 1004.6
20260504050548 55 205 5.2 9.6 0.00 0.00 0.00 70 1006.0
20260504045548 54 198 3.5 7.0 0.00 0.00 0.00 71 1006.2
20260504045048 54 208 1.7 7.0 0.00 0.00 0.00 70 1006.2
20260504044555 54 230 2.6 7.0 0.00 0.00 0.00 70 1006.2
20260504044049 54 200 3.5 7.0 0.00 0.00 0.00 70 1006.2
20260504043548 54 222 2.6 7.8 0.00 0.00 0.00 69 1006.1
20260504043059 54 211 4.3 7.8 0.00 0.00 0.00 69 1006.1
20260504042548 54 198 4.3 7.8 0.00 0.00 0.00 68 1006.1
20260504042049 54 210 3.5 5.2 0.00 0.00 0.00 68 1006.1
20260504041555 54 192 2.6 4.3 0.00 0.00 0.00 68 1006.2
20260504041048 55 216 1.7 6.1 0.00 0.00 0.00 65 1006.3
20260504040547 56 232 2.6 7.8 0.00 0.00 0.00 65 1006.5
20260504040123 56 220 2.6 7.8 0.00 0.00 0.00 64 1006.4
20260504035548 56 200 3.5 6.1 0.00 0.00 0.00 64 1006.5
20260504035047 56 219 3.5 6.1 0.00 0.00 0.00 63 1006.5
20260504034600 56 217 2.6 6.1 0.00 0.00 0.00 63 1006.5
20260504034048 56 207 2.6 6.1 0.00 0.00 0.00 63 1006.4
20260504033548 57 204 3.5 7.0 0.00 0.00 0.00 62 1006.4
20260504033056 57 213 4.3 7.0 0.00 0.00 0.00 62 1006.5
20260504032548 57 225 3.5 7.8 0.00 0.00 0.00 61 1006.5
20260504032048 57 211 3.5 8.7 0.00 0.00 0.00 61 1006.5
20260504031625 58 211 3.5 8.7 0.00 0.00 0.00 61 1006.5
20260504031051 58 215 5.2 8.7 0.00 0.00 0.00 60 1006.5
20260504030547 58 197 4.3 8.7 0.00 0.00 0.00 60 1006.5
20260504030053 58 200 6.1 8.7 0.00 0.00 0.00 60 1006.5
20260504025549 58 218 5.2 7.8 0.00 0.00 0.00 60 1006.4
20260504025047 58 190 3.5 7.8 0.00 0.00 0.00 60 1006.5
20260504024555 59 213 3.5 8.7 0.00 0.00 0.00 58 1006.6
20260504024049 59 180 4.3 8.7 0.00 0.00 0.00 58 1006.6
20260504023548 59 205 4.3 6.1 0.00 0.00 0.00 58 1006.5
20260504023053 59 193 3.5 6.1 0.00 0.00 0.00 57 1006.5
20260504022548 60 207 2.6 7.0 0.00 0.00 0.00 56 1006.6
20260504022048 60 192 2.6 8.7 0.00 0.00 0.00 55 1006.6
20260504021554 61 221 4.3 8.7 0.00 0.00 0.00 54 1006.6
20260504021045 61 178 5.2 9.6 0.00 0.00 0.00 53 1006.6
20260504020548 62 191 6.1 9.6 0.00 0.00 0.00 51 1006.6
20260504020109 62 186 5.2 9.6 0.00 0.00 0.00 51 1006.7
20260504015552 62 230 5.2 9.6 0.00 0.00 0.00 50 1006.7
20260504015049 62 211 4.3 8.7 0.00 0.00 0.00 50 1006.7
20260504014554 63 198 4.3 8.7 0.00 0.00 0.00 49 1006.8
20260504014048 63 199 4.3 7.8 0.00 0.00 0.00 49 1006.8
20260504013547 64 201 5.2 8.7 0.00 0.00 0.00 47 1006.9
20260504013051 65 198 5.2 8.7 0.00 0.00 0.00 46 1006.8
20260504012549 65 215 4.3 9.6 0.00 0.00 0.00 46 1007.0
20260504012047 65 226 5.2 12.2 0.00 0.00 0.00 45 1007.0
20260504011550 66 208 5.2 14.8 0.00 0.00 0.00 45 1007.1
20260504011049 66 205 8.7 14.8 0.00 0.00 0.00 44 1007.1
20260504010548 66 202 7.0 11.3 0.00 0.00 0.00 44 1007.2
20260504010056 67 198 4.3 10.4 0.00 0.00 0.00 43 1007.3
20260504005548 67 218 5.2 10.4 0.00 0.00 0.00 42 1007.3
20260504005052 68 212 5.2 12.2 0.00 0.00 0.00 42 1007.4
20260504004553 68 217 5.2 12.2 0.00 0.00 0.00 43 1007.4
20260504004045 68 225 6.1 13.9 0.00 0.00 0.00 43 1007.5
20260504003547 68 204 6.1 13.9 0.00 0.00 0.00 42 1007.5
20260504003053 68 227 7.0 13.0 0.00 0.00 0.00 42 1007.5
20260504002547 68 224 7.8 12.2 0.00 0.00 0.00 42 1007.6
20260504002047 68 238 7.0 13.9 0.00 0.00 0.00 42 1007.6
20260504001555 69 209 7.0 13.9 0.00 0.00 0.00 41 1007.7
20260504001051 69 221 8.7 13.9 0.00 0.00 0.00 41 1007.7
20260504000549 69 206 9.6 13.9 0.00 0.00 0.00 40 1007.8
20260504000059 69 246 10.4 13.9 0.00 0.00 0.00 40 1008.0
20260503235549 69 236 9.6 16.5 0.00 0.00 0.00 39 1008.0
20260503235051 69 236 8.7 16.5 0.00 0.00 0.00 38 1008.0
20260503234623 70 243 7.0 16.5 0.00 0.00 0.00 37 1008.1
20260503234053 70 256 9.6 16.5 0.00 0.00 0.00 36 1008.2
20260503233548 70 247 11.3 16.5 0.00 0.00 0.00 37 1008.2
20260503233053 70 242 11.3 15.6 0.00 0.00 0.00 37 1008.3
20260503232547 70 258 9.6 13.0 0.00 0.00 0.00 35 1008.3
20260503232047 70 245 7.8 13.9 0.00 0.00 0.00 36 1008.3
20260503231553 69 247 9.6 13.9 0.00 0.00 0.00 36 1008.5
20260503231048 70 261 8.7 13.9 0.00 0.00 0.00 35 1008.5
20260503230548 70 259 5.2 10.4 0.00 0.00 0.00 36 1008.7
20260503230052 70 223 5.2 13.0 0.00 0.00 0.00 37 1008.7
20260503225547 69 236 9.6 13.0 0.00 0.00 0.00 37 1008.8
20260503225048 69 227 7.8 15.6 0.00 0.00 0.00 38 1008.8
20260503224550 68 232 9.6 15.6 0.00 0.00 0.00 39 1008.9
20260503224048 67 238 11.3 18.2 0.00 0.00 0.00 43 1009.0
20260503223547 65 252 12.2 19.1 0.00 0.00 0.00 48 1009.2
20260503223057 64 262 13.0 19.1 0.00 0.00 0.00 50 1009.4
20260503222552 63 242 14.8 26.9 0.00 0.00 0.00 54 1009.5
20260503222048 63 261 16.5 31.3 0.00 0.00 0.00 53 1009.7
20260503221559 63 258 16.5 31.3 0.00 0.00 0.00 51 1009.8
20260503221048 63 264 22.6 33.0 0.00 0.00 0.00 52 1010.1
20260503220548 62 255 17.4 33.0 0.00 0.00 0.00 54 1010.2
20260503220052 64 259 20.0 33.0 0.00 0.00 0.00 48 1010.1
20260503215548 70 268 10.4 17.4 0.00 0.00 0.00 37 1010.2
20260503215048 70 261 7.8 11.3 0.00 0.00 0.00 33 1009.8
20260503214552 70 295 3.5 10.4 0.00 0.00 0.00 34 1009.7
20260503214053 71 259 6.1 10.4 0.00 0.00 0.00 32 1009.7
20260503213547 71 269 5.2 11.3 0.00 0.00 0.00 31 1009.9
20260503213053 72 230 3.5 13.0 0.00 0.00 0.00 32 1009.9
20260503212548 72 259 7.8 13.0 0.00 0.00 0.00 30 1010.0
20260503212048 73 254 3.5 9.6 0.00 0.00 0.00 31 1010.1
20260503211559 73 278 1.7 7.0 0.00 0.00 0.00 32 1010.1
20260503211049 72 221 3.5 8.7 0.00 0.00 0.00 32 1010.1
20260503210547 72 204 2.6 8.7 0.00 0.00 0.00 31 1010.1
20260503210051 72 240 2.6 7.0 0.00 0.00 0.00 31 1010.2
20260503205550 71 202 0.9 4.3 0.00 0.00 0.00 31 1010.3
20260503205050 71 109 0.9 4.3 0.00 0.00 0.00 31 1010.4
20260503204559 70 42 1.7 9.6 0.00 0.00 0.00 31 1010.5
20260503204047 70 15 2.6 10.4 0.00 0.00 0.00 31 1010.6
20260503203547 70 304 5.2 12.2 0.00 0.00 0.00 33 1010.7
20260503203058 71 345 6.1 12.2 0.00 0.00 0.00 31 1010.8
20260503202544 70 296 7.8 12.2 0.00 0.00 0.00 31 1010.8
20260503202049 70 289 5.2 8.7 0.00 0.00 0.00 31 1011.0
20260503201554 70 336 4.3 10.4 0.00 0.00 0.00 32 1011.0
20260503201047 70 45 5.2 10.4 0.00 0.00 0.00 33 1011.1
20260503200548 70 334 3.5 8.7 0.00 0.00 0.00 31 1011.2
20260503200057 70 332 4.3 8.7 0.00 0.00 0.00 31 1011.3
20260503195551 71 24 0.9 10.4 0.00 0.00 0.00 32 1011.3
20260503195049 71 232 4.3 10.4 0.00 0.00 0.00 34 1011.4
20260503194604 71 242 6.1 11.3 0.00 0.00 0.00 32 1011.4
20260503194047 70 273 3.5 11.3 0.00 0.00 0.00 34 1011.4
20260503193548 70 13 4.3 8.7 0.00 0.00 0.00 31 1011.5
20260503193059 70 335 4.3 12.2 0.00 0.00 0.00 32 1011.6
20260503192546 70 172 2.6 12.2 0.00 0.00 0.00 32 1011.6
20260503192047 70 310 7.0 13.9 0.00 0.00 0.00 32 1011.7
20260503191555 70 313 5.2 13.9 0.00 0.00 0.00 33 1011.8
20260503191044 70 306 7.8 13.0 0.00 0.00 0.00 32 1011.8
20260503190544 70 317 6.1 12.2 0.00 0.00 0.00 32 1011.9